#timestamp,LO_Frequency,Hit,StdDev 
1541170815.8,286046998.6,N
1541170835.7,286047000.7,N
1541170855.5,286046998.3,N
1541170875.4,286046999.7,N
1541170895.2,286047000.8,N
1541170915.0,286046998.2,N
1541170915.9,286046998.2,N
1541170935.8,286046998.1,N
1541170955.6,286047000.6,N
1541170975.4,286047002.6,N
1541170995.3,286047000.2,N
1541171015.1,286047002.7,N
1541171035.9,286047001.1,N
1541171055.7,286046998.3,N
1541171075.5,286047001.1,N
1541171095.4,286046999.4,N
1541171115.2,286047000.9,N
1541171135.0,286047000.3,N
1541171135.9,286047000.3,N
1541171155.8,286047000.0,N
1541171175.6,286047002.5,N
1541171195.5,286047002.2,N
1541171215.3,286047001.9,N
1541171235.1,286046999.9,N
1541171255.9,286047001.2,N
1541171275.7,286047000.2,N
1541171325.6,286047000.2,E
1541171335.5,286046999.9,N
1541171355.3,286047001.1,P
1541171375.2,286046998.9,N
1541171395.0,286046998.2,N
1541171395.9,286046998.2,N
1541171415.7,286046999.1,N
1541171435.6,286046998.4,N
1541171455.4,286046998.2,N
1541171475.3,286047000.8,N
1541171495.1,286047002.7,N
1541171496.0,286047002.7,N
1541171515.8,286047000.1,N
1541171535.7,286047001.6,N
1541171555.5,286047002.4,N
1541171575.3,286047002.2,N
1541171595.2,286047003.6,N
1541171615.0,286047003.4,N
1541171615.9,286047003.4,N
1541171635.8,286047003.6,N
1541171655.6,286047001.4,N
1541171675.4,286046999.7,N
1541171695.3,286047002.6,N
1541171715.1,286047002.3,N
1541171735.8,286047001.7,N
1541171755.7,286047001.6,N
1541171775.5,286047002.6,N
1541171795.4,286047001.6,N
1541171815.2,286047002.7,N
1541171835.0,286047002.4,N
1541171835.9,286047002.4,N
1541171855.8,286047004.2,N
1541171875.6,286047003.0,N
1541171895.4,286047001.8,N
1541171915.3,286047001.0,N
1541171935.1,286046998.5,N
1541171955.9,286047002.3,N
1541171975.7,286047000.4,N
1541171995.5,286046999.9,N
1541172015.4,286047002.4,N
1541172035.2,286046999.7,N
1541172055.0,286047000.8,N
1541172055.9,286047000.8,N
1541172075.8,286047001.1,N
1541172095.6,286047011.9,Y
1541172115.5,286046997.1,P
1541172135.3,286046999.6,N
1541172155.1,286046999.4,N
1541172175.9,286046997.2,N
1541172195.7,286046997.3,N
1541172215.5,286046997.2,N
1541172235.4,286046999.3,N
1541172255.2,286046999.6,N
1541172275.1,286047001.0,N
1541172276.0,286047001.0,N
1541172295.8,286047001.2,N
1541172315.6,286046998.1,N
1541172335.5,286046999.1,N
1541172355.3,286046996.9,N
1541172375.1,286046999.5,N
1541172395.9,286046997.2,N
1541172415.7,286046996.5,N
1541172435.6,286046997.8,N
1541172455.4,286046997.4,N
1541172475.2,286046996.2,N
1541172495.1,286046996.3,N
1541172496.0,286046996.3,N
1541172515.8,286046997.6,N
1541172535.6,286046997.4,N
1541172555.5,286046998.0,N
1541172575.3,286046997.6,N
1541172595.2,286046997.7,N
1541172615.9,286046997.3,N
1541172635.7,286046997.5,N
1541172655.6,286046995.3,Y
1541172675.4,286046999.8,P
1541172695.3,286047000.9,N
1541172715.1,286046999.9,N
1541172716.0,286046999.9,N
1541172735.8,286046998.7,N
1541172755.7,286047000.9,N
1541172775.5,286047000.9,N
1541172795.3,286047000.3,N
1541172815.2,286047000.6,N
1541172835.0,286047001.2,N
1541172835.9,286047001.2,N
1541172855.8,286046999.3,N
1541172875.6,286046998.7,N
1541172895.4,286046996.6,Y
1541172915.3,286046999.1,P
1541172935.1,286047000.5,N
1541172955.9,286047000.3,N
1541172975.7,286047000.4,N
1541172995.5,286047000.5,N
1541173015.4,286047000.0,N
1541173035.2,286047001.1,N
1541173055.0,286047000.3,N
1541173055.9,286047000.3,N
1541173075.8,286047001.0,N
1541173095.6,286046998.1,Y
1541173115.5,286046999.5,P
1541173135.3,286046996.9,P
1541173155.1,286046999.6,N
1541173175.9,286046997.4,N
1541173195.7,286046997.2,N
1541173215.6,286046995.7,Y
1541173235.4,286046996.5,P
1541173255.2,286046999.5,N
1541173275.1,286046999.5,N
1541173276.0,286046999.5,N
1541173295.8,286046996.1,Y
1541173315.6,286046996.8,P
1541173335.5,286046998.8,N
1541173355.3,286046998.7,N
1541173375.2,286046998.3,N
1541173395.9,286046998.8,N
1541173415.7,286046998.4,N
1541173435.6,286047000.0,N
1541173455.4,286047001.0,N
1541173475.2,286046998.8,N
1541173495.1,286047001.1,N
1541173496.0,286047001.1,N
1541173515.8,286047003.9,Y
1541173535.7,286047003.6,P
1541173555.5,286047000.7,N
1541173575.3,286047001.2,N
1541173595.2,286046997.6,N
1541173615.0,286046995.7,N
1541173615.9,286046995.7,N
1541173635.8,286046992.0,N
1541173655.6,286046992.4,N
1541173675.4,286046993.1,N
1541173695.3,286046994.3,N
1541173715.1,286046992.5,N
1541173735.8,286046994.4,N
1541173755.7,286046996.3,N
1541173775.5,286046993.7,N
1541173795.4,286046994.1,N
1541173815.2,286046996.1,N
1541173835.0,286046995.5,N
1541173835.9,286046995.5,N
1541173855.8,286046999.1,N
1541173875.6,286046998.2,N
1541173895.5,286047000.4,N
1541173915.3,286047000.1,N
1541173935.1,286047002.1,N
1541173955.9,286047001.3,N
1541173975.7,286047001.3,N
1541173995.5,286047001.4,N
1541174015.4,286047004.3,N
1541174035.2,286047004.1,N
1541174055.1,286047001.7,N
1541174056.0,286047001.7,N
1541174075.8,286047001.4,N
1541174095.6,286047003.9,N
1541174115.5,286047006.0,N
1541174135.3,286047005.2,N
1541174155.2,286047005.2,N
1541174175.9,286047003.2,N
1541174195.7,286047003.7,N
1541174215.6,286047003.6,N
1541174235.4,286047006.0,N
1541174255.2,286047003.6,N
1541174275.1,286047003.1,N
1541174276.0,286047003.1,N
1541174295.8,286047003.8,N
1541174315.7,286047002.0,N
1541174335.5,286047004.0,N
1541174355.3,286047003.6,N
1541174375.2,286047003.2,N
1541174395.0,286047005.5,N
1541174395.9,286047005.5,N
